K7TUS-6 Weather Reports


Display with metric or nautical units.
time (UTC)temp
F
wind
direction
speed
MPH
gust
MPH
rain 1hr
in
rain 24hr
in
rain mn
in
humidity
%
barometer
mb
20260510221006 68 300 8.0 11.0 0.00 0.00 0.00 1 990.0
20260510220506 72 199 3.0 7.0 0.00 0.00 0.00 1 990.1
20260510220005 69 324 10.0 15.0 0.00 0.00 0.00 1 989.4
20260510215505 72 334 7.0 10.0 0.00 0.00 0.00 1 989.8
20260510215004 73 323 6.0 9.0 0.00 0.00 0.00 1 990.4
20260510214504 71 304 6.0 10.0 0.00 0.00 0.00 1 990.5
20260510214009 72 326 2.0 6.0 0.00 0.00 0.00 1 991.1
20260510213508 72 20 2.0 5.0 0.00 0.00 0.00 1 990.8
20260510213007 73 313 3.0 6.0 0.00 0.00 0.00 1 991.1
20260510212506 74 162 5.0 8.0 0.00 0.00 0.00 1 991.7
20260510212006 75 57 2.0 3.0 0.00 0.00 0.00 1 990.3
20260510211505 73 36 1.0 3.0 0.00 0.00 0.00 1 990.3
20260510211004 70 200 1.0 2.0 0.00 0.00 0.00 1 990.3
20260510210504 68 336 10.0 17.0 0.00 0.00 0.00 1 990.6
20260510210009 72 337 7.0 10.0 0.00 0.00 0.00 1 990.9
20260510205508 73 352 4.0 6.0 0.00 0.00 0.00 1 990.5
20260510205008 71 3 7.0 10.0 0.00 0.00 0.00 1 990.6
20260510204507 73 331 6.0 9.0 0.00 0.00 0.00 1 991.1
20260510204007 76 59 2.0 3.0 0.00 0.00 0.00 1 991.7
20260510203506 74 0 2.0 5.0 0.00 0.00 0.00 1 990.7
20260510203006 72 23 5.0 9.0 0.00 0.00 0.00 1 991.1
20260510202505 69 329 10.0 13.0 0.00 0.00 0.00 1 991.7
20260510202005 71 339 8.0 11.0 0.00 0.00 0.00 1 990.6
20260510201504 71 6 2.0 2.0 0.00 0.00 0.00 1 990.8
20260510201003 71 349 4.0 8.0 0.00 0.00 0.00 1 990.8
20260510200503 69 330 9.0 11.0 0.00 0.00 0.00 1 991.5
20260510200008 71 358 4.0 11.0 0.00 0.00 0.00 1 990.8
20260510195508 70 25 3.0 8.0 0.00 0.00 0.00 1 989.2
20260510195007 69 319 8.0 12.0 0.00 0.00 0.00 1 990.5
20260510194506 69 327 7.0 12.0 0.00 0.00 0.00 1 990.7
20260510194006 68 331 12.0 17.0 0.00 0.00 0.00 1 991.4
20260510193505 70 342 7.0 11.0 0.00 0.00 0.00 1 992.1
20260510193005 72 346 5.0 10.0 0.00 0.00 0.00 1 991.1
20260510192504 72 330 3.0 7.0 0.00 0.00 0.00 1 991.7
20260510192003 69 333 5.0 10.0 0.00 0.00 0.00 1 991.3
20260510191509 71 5 5.0 8.0 0.00 0.00 0.00 1 991.1
20260510191008 69 341 4.0 7.0 0.00 0.00 0.00 1 990.4
20260510190507 71 356 6.0 8.0 0.00 0.00 0.00 1 991.1
20260510190007 71 330 7.0 13.0 0.00 0.00 0.00 1 991.2
20260510185506 73 335 4.0 6.0 0.00 0.00 0.00 1 991.6
20260510185005 71 339 4.0 6.0 0.00 0.00 0.00 1 991.3
20260510184505 72 73 2.0 5.0 0.00 0.00 0.00 1 990.4
20260510184004 71 2 6.0 10.0 0.00 0.00 0.00 1 991.4
20260510183003 69 340 10.0 12.0 0.00 0.00 0.00 1 991.8
20260510182509 71 334 5.0 7.0 0.00 0.00 0.00 1 991.4
20260510182008 71 335 5.0 9.0 0.00 0.00 0.00 1 991.6
20260510181507 71 349 5.0 8.0 0.00 0.00 0.00 1 992.1
20260510181007 73 352 3.0 6.0 0.00 0.00 0.00 1 991.3
20260510180506 72 32 2.0 4.0 0.00 0.00 0.00 1 990.6
20260510180006 69 347 3.0 6.0 0.00 0.00 0.00 1 991.6
20260510175505 72 327 4.0 6.0 0.00 0.00 0.00 1 991.5
20260510175004 73 347 4.0 6.0 0.00 0.00 0.00 1 990.5
20260510174504 74 3 1.0 1.0 0.00 0.00 0.00 1 990.9
20260510174003 72 334 1.0 2.0 0.00 0.00 0.00 1 991.1
20260510173502 71 334 2.0 6.0 0.00 0.00 0.00 1 991.4
20260510173008 70 308 3.0 6.0 0.00 0.00 0.00 1 991.2
20260510172507 68 337 5.0 7.0 0.00 0.00 0.00 1 991.6
20260510172007 69 327 4.0 8.0 0.00 0.00 0.00 1 990.4
20260510171505 68 341 4.0 8.0 0.00 0.00 0.00 1 991.0
20260510171005 69 335 3.0 4.0 0.00 0.00 0.00 1 991.2
20260510170504 68 323 6.0 9.0 0.00 0.00 0.00 1 991.0
20260510170003 69 331 5.0 7.0 0.00 0.00 0.00 1 990.4
20260510165507 70 5 2.0 7.0 0.00 0.00 0.00 1 990.5
20260510164507 68 5 4.0 8.0 0.00 0.00 0.00 1 990.7
20260510164006 68 333 3.0 5.0 0.00 0.00 0.00 1 990.5
20260510163005 68 330 3.0 6.0 0.00 0.00 0.00 1 990.6
20260510162505 68 41 2.0 3.0 0.00 0.00 0.00 1 990.6
20260510162004 67 9 3.0 4.0 0.00 0.00 0.00 1 990.8
20260510161503 64 317 6.0 12.0 0.00 0.00 0.00 1 991.0
20260510161003 67 357 3.0 4.0 0.00 0.00 0.00 1 990.4
20260510160508 66 349 5.0 7.0 0.00 0.00 0.00 1 990.0
20260510160008 65 322 6.0 8.0 0.00 0.00 0.00 1 990.2
20260510155507 65 334 2.0 6.0 0.00 0.00 0.00 1 989.7
20260510155006 64 326 7.0 10.0 0.00 0.00 0.00 1 989.6
20260510154506 63 331 6.0 7.0 0.00 0.00 0.00 1 988.8
20260510154005 64 333 4.0 6.0 0.00 0.00 0.00 1 990.1
20260510153504 63 337 6.0 8.0 0.00 0.00 0.00 1 989.4
20260510153004 62 323 9.0 12.0 0.00 0.00 0.00 1 989.4
20260510152503 63 344 5.0 7.0 0.00 0.00 0.00 1 989.3
20260510152002 62 348 3.0 6.0 0.00 0.00 0.00 1 988.7
20260510151508 60 315 10.0 16.0 0.00 0.00 0.00 1 988.7
20260510150507 60 325 6.0 9.0 0.00 0.00 0.00 1 988.0
20260510150006 60 326 10.0 13.0 0.00 0.00 0.00 1 989.9
20260510145006 59 325 10.0 11.0 0.00 0.00 0.00 1 989.2
20260510144505 60 340 8.0 11.0 0.00 0.00 0.00 1 989.2
20260510143504 59 329 10.0 14.0 0.00 0.00 0.00 1 988.8
20260510143004 59 338 8.0 10.0 0.00 0.00 0.00 1 989.3
20260510142503 59 337 8.0 10.0 0.00 0.00 0.00 1 988.4
20260510142003 58 321 9.0 13.0 0.00 0.00 0.00 1 987.9
20260510141520 59 332 9.0 13.0 0.00 0.00 0.00 1 988.4
20260510141007 58 326 6.0 11.0 0.00 0.00 0.00 1 988.8
20260510140507 59 321 6.0 8.0 0.00 0.00 0.00 1 988.3
20260510140006 58 323 9.0 13.0 0.00 0.00 0.00 1 987.9
20260510135505 58 354 5.0 11.0 0.00 0.00 0.00 1 989.1
20260510135004 57 327 9.0 13.0 0.00 0.00 0.00 1 989.7
20260510134504 58 324 6.0 11.0 0.00 0.00 0.00 1 989.4
20260510133503 57 329 6.0 6.0 0.00 0.00 0.00 1 988.4
20260510133003 57 329 6.0 6.0 0.00 0.00 0.00 1 988.4
20260510132508 57 329 6.0 6.0 0.00 0.00 0.00 1 988.4
20260510132007 56 333 5.0 5.0 0.00 0.00 0.00 1 987.6
20260510131507 56 330 10.0 12.0 0.00 0.00 0.00 1 987.6
20260510131006 56 322 11.0 11.0 0.00 0.00 0.00 1 987.6
20260510130506 56 330 7.0 7.0 0.00 0.00 0.00 1 987.9
20260510130005 56 318 12.0 12.0 0.00 0.00 0.00 1 987.9
20260510125504 55 321 10.0 10.0 0.00 0.00 0.00 1 987.1
20260510125004 55 321 10.0 10.0 0.00 0.00 0.00 1 987.1
20260510124503 56 338 6.0 6.0 0.00 0.00 0.00 1 987.4
20260510124002 55 325 10.0 10.0 0.00 0.00 0.00 1 987.2
20260510123508 55 323 10.0 10.0 0.00 0.00 0.00 1 987.2
20260510123007 55 330 7.0 7.0 0.00 0.00 0.00 1 987.9
20260510122507 55 315 8.0 13.0 0.00 0.00 0.00 1 987.5
20260510122006 55 330 12.0 13.0 0.00 0.00 0.00 1 987.8
20260510121506 55 307 9.0 12.0 0.00 0.00 0.00 1 987.9
20260510121005 55 322 8.0 11.0 0.00 0.00 0.00 1 987.9
20260510120504 55 310 10.0 13.0 0.00 0.00 0.00 1 987.8
20260510120004 54 322 9.0 10.0 0.00 0.00 0.00 1 987.8
20260510115503 55 316 7.0 10.0 0.00 0.00 0.00 1 987.5
20260510115003 55 322 8.0 9.0 0.00 0.00 0.00 1 986.8
20260510114508 55 289 5.0 7.0 0.00 0.00 0.00 1 986.6
20260510114007 55 328 6.0 10.0 0.00 0.00 0.00 1 986.5
20260510113507 56 287 5.0 7.0 0.00 0.00 0.00 1 987.1
20260510113006 56 291 5.0 8.0 0.00 0.00 0.00 1 986.6
20260510112005 55 294 7.0 9.0 0.00 0.00 0.00 1 987.9
20260510111505 54 294 6.0 7.0 0.00 0.00 0.00 1 987.1
20260510111004 55 315 7.0 10.0 0.00 0.00 0.00 1 987.4
20260510110503 54 313 9.0 11.0 0.00 0.00 0.00 1 987.3
20260510110003 55 312 9.0 11.0 0.00 0.00 0.00 1 987.2
20260510105502 55 317 10.0 13.0 0.00 0.00 0.00 1 987.7
20260510105008 55 322 7.0 9.0 0.00 0.00 0.00 1 986.8
20260510104507 55 331 10.0 13.0 0.00 0.00 0.00 1 986.9
20260510104006 55 303 8.0 12.0 0.00 0.00 0.00 1 987.4
20260510103506 55 289 6.0 11.0 0.00 0.00 0.00 1 987.7
20260510103005 54 292 9.0 11.0 0.00 0.00 0.00 1 987.1
20260510102505 55 312 8.0 11.0 0.00 0.00 0.00 1 987.8
20260510102004 55 327 10.0 13.0 0.00 0.00 0.00 1 987.4
20260510101504 55 312 10.0 12.0 0.00 0.00 0.00 1 987.4
20260510101003 55 323 10.0 13.0 0.00 0.00 0.00 1 987.6
20260510100502 55 326 8.0 10.0 0.00 0.00 0.00 1 987.1
20260510100008 55 337 7.0 11.0 0.00 0.00 0.00 1 987.0
20260510095507 55 310 9.0 11.0 0.00 0.00 0.00 1 987.0
20260510095007 55 320 8.0 10.0 0.00 0.00 0.00 1 987.2
20260510094506 55 332 8.0 11.0 0.00 0.00 0.00 1 987.3
20260510093505 55 319 6.0 9.0 0.00 0.00 0.00 1 986.6
20260510093005 55 320 11.0 14.0 0.00 0.00 0.00 1 986.7
20260510092504 55 322 9.0 12.0 0.00 0.00 0.00 1 986.4
20260510092010 55 321 10.0 12.0 0.00 0.00 0.00 1 987.2
20260510091509 55 309 11.0 11.0 0.00 0.00 0.00 1 987.5
20260510091008 55 309 11.0 11.0 0.00 0.00 0.00 1 987.5
20260510090507 55 302 14.0 14.0 0.00 0.00 0.00 1 987.5
20260510085506 55 302 14.0 14.0 0.00 0.00 0.00 1 987.5
20260510085006 55 280 7.0 7.0 0.00 0.00 0.00 1 988.5
20260510084505 55 280 7.0 7.0 0.00 0.00 0.00 1 988.5
20260510084004 55 317 11.0 11.0 0.00 0.00 0.00 1 987.1
20260510083504 55 297 7.0 7.0 0.00 0.00 0.00 1 987.8
20260510083003 55 297 7.0 7.0 0.00 0.00 0.00 1 987.8
20260510082509 55 325 3.0 3.0 0.00 0.00 0.00 1 987.5
20260510082008 55 313 12.0 12.0 0.00 0.00 0.00 1 987.8
20260510081508 55 313 12.0 12.0 0.00 0.00 0.00 1 987.8
20260510080506 55 294 8.0 8.0 0.00 0.00 0.00 1 987.5
20260510080005 56 245 4.0 4.0 0.00 0.00 0.00 1 988.2
20260510075505 56 245 5.0 8.0 0.00 0.00 0.00 1 988.2
20260510075005 56 245 6.0 7.0 0.00 0.00 0.00 1 987.9
20260510074504 55 299 6.0 7.0 0.00 0.00 0.00 1 988.2
20260510074009 55 306 10.0 15.0 0.00 0.00 0.00 1 987.5
20260510073509 55 248 5.0 11.0 0.00 0.00 0.00 1 987.2
20260510073008 56 255 8.0 14.0 0.00 0.00 0.00 1 986.3
20260510072508 56 233 6.0 11.0 0.00 0.00 0.00 1 986.7
20260510072007 56 277 8.0 11.0 0.00 0.00 0.00 1 986.9
20260510071507 56 279 5.0 6.0 0.00 0.00 0.00 1 987.8
20260510071006 56 207 6.0 9.0 0.00 0.00 0.00 1 987.1
20260510070505 56 267 3.0 10.0 0.00 0.00 0.00 1 986.8
20260510070005 56 291 7.0 13.0 0.00 0.00 0.00 1 986.2
20260510065504 56 273 4.0 9.0 0.00 0.00 0.00 1 986.8
20260510065004 56 285 8.0 12.0 0.00 0.00 0.00 1 987.0
20260510064509 56 274 7.0 13.0 0.00 0.00 0.00 1 986.7
20260510063508 56 308 8.0 15.0 0.00 0.00 0.00 1 987.1
20260510063008 56 296 7.0 13.0 0.00 0.00 0.00 1 987.2
20260510062507 57 317 8.0 10.0 0.00 0.00 0.00 1 987.2
20260510061506 57 333 10.0 15.0 0.00 0.00 0.00 1 987.3
20260510061005 57 329 8.0 12.0 0.00 0.00 0.00 1 986.8
20260510060005 57 339 9.0 14.0 0.00 0.00 0.00 1 987.1
20260510055004 56 304 8.0 10.0 0.00 0.00 0.00 1 987.2
20260510054009 57 331 9.0 11.0 0.00 0.00 0.00 1 987.5
20260510053508 57 291 9.0 13.0 0.00 0.00 0.00 1 987.3
20260510053008 56 323 12.0 15.0 0.00 0.00 0.00 1 986.9
20260510052507 57 322 6.0 9.0 0.00 0.00 0.00 1 987.3
20260510052006 57 330 13.0 18.0 0.00 0.00 0.00 1 987.4
20260510051506 56 333 7.0 12.0 0.00 0.00 0.00 1 986.9
20260510051035 57 323 6.0 11.0 0.00 0.00 0.00 1 987.2
20260510050005 57 325 8.0 14.0 0.00 0.00 0.00 1 987.3
20260510045504 57 309 12.0 16.0 0.00 0.00 0.00 1 987.2
20260510044509 57 323 12.0 16.0 0.00 0.00 0.00 1 988.2
20260510044008 58 347 6.0 8.0 0.00 0.00 0.00 1 987.4
20260510043508 58 301 10.0 13.0 0.00 0.00 0.00 1 986.5
20260510043008 58 322 9.0 11.0 0.00 0.00 0.00 1 986.6
20260510042507 58 329 8.0 11.0 0.00 0.00 0.00 1 986.7
20260510042006 58 321 11.0 13.0 0.00 0.00 0.00 1 986.5
20260510041506 58 323 7.0 11.0 0.00 0.00 0.00 1 986.6
20260510041005 58 337 8.0 13.0 0.00 0.00 0.00 1 986.8
20260510040504 58 330 9.0 11.0 0.00 0.00 0.00 1 987.1
20260510040004 58 330 7.0 9.0 0.00 0.00 0.00 1 986.1
20260510035508 58 318 7.0 13.0 0.00 0.00 0.00 1 986.8
20260510035008 58 323 6.0 10.0 0.00 0.00 0.00 1 987.4
20260510034508 58 324 6.0 9.0 0.00 0.00 0.00 1 986.7
20260510034007 58 324 5.0 5.0 0.00 0.00 0.00 1 986.5
20260510033506 59 333 7.0 11.0 0.00 0.00 0.00 1 986.1
20260510033006 59 326 8.0 13.0 0.00 0.00 0.00 1 986.5
20260510032505 59 325 8.0 8.0 0.00 0.00 0.00 1 986.2
20260510032005 58 327 7.0 11.0 0.00 0.00 0.00 1 986.7
20260510031504 58 325 8.0 10.0 0.00 0.00 0.00 1 986.2
20260510031004 59 324 7.0 9.0 0.00 0.00 0.00 1 985.8
20260510030508 59 319 4.0 5.0 0.00 0.00 0.00 1 986.2
20260510030008 59 310 4.0 6.0 0.00 0.00 0.00 1 986.9
20260510025507 59 312 4.0 5.0 0.00 0.00 0.00 1 987.4
20260510024506 59 305 4.0 6.0 0.00 0.00 0.00 1 986.0
20260510024006 59 312 6.0 9.0 0.00 0.00 0.00 1 986.2
20260510023505 60 304 5.0 8.0 0.00 0.00 0.00 1 986.9
20260510023005 60 288 5.0 10.0 0.00 0.00 0.00 1 987.1
20260510022504 60 324 6.0 8.0 0.00 0.00 0.00 1 986.1
20260510022003 60 309 7.0 11.0 0.00 0.00 0.00 1 986.4
20260510021509 61 254 3.0 5.0 0.00 0.00 0.00 1 986.2
20260510021008 61 194 2.0 5.0 0.00 0.00 0.00 1 986.0
20260510020507 61 304 10.0 16.0 0.00 0.00 0.00 1 986.2
20260510020007 63 197 3.0 5.0 0.00 0.00 0.00 1 985.5
20260510015506 63 267 1.0 4.0 0.00 0.00 0.00 1 985.7
20260510015006 64 291 2.0 4.0 0.00 0.00 0.00 1 986.5
20260510014505 65 357 1.0 3.0 0.00 0.00 0.00 1 986.7
20260510014004 65 162 2.0 4.0 0.00 0.00 0.00 1 986.7
20260510013504 68 75 3.0 7.0 0.00 0.00 0.00 1 987.6
20260510013003 67 322 2.0 6.0 0.00 0.00 0.00 1 987.1
20260510012503 65 320 5.0 8.0 0.00 0.00 0.00 1 986.6
20260510012008 68 75 2.0 4.0 0.00 0.00 0.00 1 986.5
20260510011507 67 207 1.0 3.0 0.00 0.00 0.00 1 986.1
20260510011007 67 277 4.0 10.0 0.00 0.00 0.00 1 986.6
20260510010507 70 305 3.0 6.0 0.00 0.00 0.00 1 987.1
20260510010006 72 10 1.0 1.0 0.00 0.00 0.00 1 987.3
20260510005505 72 10 1.0 1.0 0.00 0.00 0.00 1 987.3
20260510005005 72 10 1.0 1.0 0.00 0.00 0.00 1 987.3
20260510004504 72 10 1.0 1.0 0.00 0.00 0.00 1 987.3
20260510004004 72 10 1.0 1.0 0.00 0.00 0.00 1 987.3
20260510003504 72 10 1.0 1.0 0.00 0.00 0.00 1 987.3
20260510003003 72 10 1.0 1.0 0.00 0.00 0.00 1 987.3
20260510002508 70 208 1.0 4.0 0.00 0.00 0.00 1 987.1
20260510002008 71 330 9.0 9.0 0.00 0.00 0.00 1 987.3
20260510001508 71 330 9.0 9.0 0.00 0.00 0.00 1 987.3
20260510001007 73 184 4.0 4.0 0.00 0.00 0.00 1 986.9
20260510000506 69 119 0.0 0.0 0.00 0.00 0.00 1 986.5
20260510000006 69 119 3.0 4.0 0.00 0.00 0.00 1 986.5
20260509235505 71 239 2.0 2.0 0.00 0.00 0.00 1 985.9
20260509235005 73 169 4.0 4.0 0.00 0.00 0.00 1 986.3
20260509234504 73 184 5.0 10.0 0.00 0.00 0.00 1 986.3
20260509234004 74 206 8.0 12.0 0.00 0.00 0.00 1 986.9
20260509233509 74 136 2.0 5.0 0.00 0.00 0.00 1 986.0
20260509233008 72 55 3.0 9.0 0.00 0.00 0.00 1 986.7
20260509232508 71 191 2.0 4.0 0.00 0.00 0.00 1 986.3
20260509232008 72 229 6.0 11.0 0.00 0.00 0.00 1 988.2
20260509231507 72 187 9.0 16.0 0.00 0.00 0.00 1 986.3
20260509231006 73 214 5.0 9.0 0.00 0.00 0.00 1 987.0
20260509230506 75 53 2.0 3.0 0.00 0.00 0.00 1 986.8
20260509230005 72 275 3.0 5.0 0.00 0.00 0.00 1 987.5
20260509225505 76 184 1.0 4.0 0.00 0.00 0.00 1 987.9
20260509224504 72 273 2.0 5.0 0.00 0.00 0.00 1 988.1
20260509224004 74 162 4.0 6.0 0.00 0.00 0.00 1 987.5
20260509223503 76 175 4.0 6.0 0.00 0.00 0.00 1 987.7
20260509223003 76 126 2.0 4.0 0.00 0.00 0.00 1 987.4
20260509222508 74 204 3.0 7.0 0.00 0.00 0.00 1 987.8
20260509222008 73 190 10.0 16.0 0.00 0.00 0.00 1 987.4
20260509221508 72 7 1.0 4.0 0.00 0.00 0.00 1 987.4